Regional Weather Roundup
Issued by NWS

Home | Current Version | Previous Version | Graphics & Text | Print | Product List | Glossary On
Versions: 1 2 3 4 5 6 7 8 9 10 11 12 13 14 15 16 17 18 19 20 21 22 23 24 25 26 27 28 29 30 31 32 33 34 35 36 37 38 39 40 41 42 43 44 45 46 47 48 49 50
000
ASUS43 KMPX 251810
RWRMN
WEATHER ROUNDUP FOR MINNESOTA
NATIONAL WEATHER SERVICE TWIN CITIES/CHANHASSEN MN
1200 PM CST TUE NOV 25 2014


NOTE: "FAIR" INDICATES FEW OR NO CLOUDS BELOW 12,000 FEET WITH NO
SIGNIFICANT WEATHER AND/OR OBSTRUCTIONS TO VISIBILITY. N/A MEANS
CURRENT SKY AND/OR WEATHER CONDITIONS ARE NOT AVAILABLE.

MNZ060>063-068>070-251900-
   Twin Cities Metro

CITY           SKY/WX    TMP DP  RH WIND       PRES   REMARKS
TWIN CITIES    CLOUDY    19  10  68 CALM      30.07F
6HR MIN TEMP:  10; 6HR MAX TEMP:  19;

ST PAUL        CLOUDY    20  12  71 CALM      30.09F
CRYSTAL        CLOUDY    19  10  68 CALM      30.05F
BLAINE         CLOUDY    19  12  73 W3        30.05F
LAKEVILLE      PTSUNNY   19  12  73 W3        30.05F
EDEN PRAIRIE   CLOUDY    19  11  70 SW5       30.05F WCI  12
6HR MIN TEMP:   9; 6HR MAX TEMP:  19;

SOUTH ST PAUL  CLOUDY    20  11  68 CALM      30.07F
LAKE ELMO      CLOUDY    21  12  68 W5        30.07S WCI  15
$$
MNZ001>005-007-008-013>017-022>024-027-028-251900-
   Northwest Minnesota

CITY           SKY/WX    TMP DP  RH WIND       PRES   REMARKS
BEMIDJI        CLOUDY    17   7  65 SW3       29.94F
HALLOCK          N/A     16  10  79 CALM      29.96F
ROSEAU         CLOUDY    18  10  73 NW3       29.95S
WARROAD        FLURRIES  16  10  79 W3        29.94F
THIEF RVR FALL MOSUNNY   19  12  73 CALM      29.95F
CROOKSTON      CLOUDY    19  12  73 CALM      29.97F
FOSSTON        MOSUNNY   19  10  68 CALM      29.94F
DETROIT LAKES  CLOUDY    23  16  74 S7        29.94F WCI  15
MOORHEAD       CLOUDY    25  19  80 S7        29.96F WCI  17
PARK RAPIDS    CLOUDY    18  10  71 SW3       29.94F
MAHNOMEN       FAIR      21  14  75 SW6       29.94S WCI  14
$$
MNZ006-009>011-018-025>026-251900-
   North Central Minnesota

CITY           SKY/WX    TMP DP  RH WIND       PRES   REMARKS
BAUDETTE       CLOUDY    11   7  84 CALM      29.94S
FLAG ISLAND    CLOUDY    10   3  72 CALM      29.93F
INTL FALLS     CLOUDY    15   3  59 W6        29.94F WCI   6
6HR MIN TEMP:  -4; 6HR MAX TEMP:  15;

WASKISH        CLOUDY    14   9  79 CALM      29.95S
BIG FORK       SUNNY     19   5  53 CALM      29.94F
LONGVILLE      CLOUDY    16   7  67 W3        29.96F
GRAND RAPIDS   CLOUDY    12   5  73 S5        29.95F WCI   4
CRANE LAKE     MOSUNNY   12   5  73 W3        29.97F
ORR            SUNNY     14   5  67 CALM      29.92F
COOK           MOSUNNY   16   7  67 W3        29.95F
WALKER         CLOUDY    17   6  64 CALM      29.95S
$$
MNZ012-019>021-037-251900-
   Northeast Minnesota

CITY           SKY/WX    TMP DP  RH WIND       PRES   REMARKS
DULUTH         MOSUNNY   18   9  68 SW7       29.96S WCI   9
6HR MIN TEMP:   8; 6HR MAX TEMP:  18; 6HR PCP: TRACE;

ELY            MOSUNNY   16   9  73 SW5       29.94S WCI   9
HIBBING        MOSUNNY   18   6  59 VRB3      29.95F
EVELETH        SUNNY     18  10  73 S3        29.95F
DULUTH HARBOR  SUNNY     21  10  63 CALM      30.04S
TWO HARBORS    SUNNY     25  12  58 SW8       29.95F WCI  16
SILVER BAY     SUNNY     25   9  50 SW7       29.94F WCI  17
GRAND MARAIS     N/A     21  13  71 SW14      29.97F WCI   8
G MARAIS ARPRT MOSUNNY   16   3  57 W3        29.88S
$$
MNZ029>031-032-039>041-046>048-054>057-064-251900-
   West Central Minnesota

CITY           SKY/WX    TMP DP  RH WIND       PRES   REMARKS
FERGUS FALLS   CLOUDY    19  10  68 S8        29.99F WCI   9
WHEATON        CLOUDY    23  16  74 SE8       29.98F WCI  14
MORRIS           N/A     19  12  73 SE10      29.97S WCI   8
ALEXANDRIA     CLOUDY    19   7  59 S7        29.96F WCI  10
ELBOW LAKE       N/A     18  10  72 SE8       29.96F WCI   8
WADENA         CLOUDY    18   9  68 S3        29.95F
GLENWOOD       CLOUDY    18   9  68 SE7       29.98F WCI   8
APPLETON       MOSUNNY   27  12  54 S5        29.99S WCI  21
BENSON         CLOUDY    19  10  68 S9        29.98F WCI   9
ORTONVILLE     CLOUDY    27  16  63 SE5       29.96F WCI  21
MADISON        MOSUNNY   30  19  64 S8        29.98F WCI  23
WILLMAR        FAIR      19  10  68 SE8       30.01F WCI   9
$$
MNZ033>034-036-042>043-049>051-058-059-251900-
   Central Minnesota

CITY           SKY/WX    TMP DP  RH WIND       PRES   REMARKS
ST CLOUD       CLOUDY    16   9  74 SE5       30.03F WCI   9
6HR MIN TEMP:   7; 6HR MAX TEMP:  16;

SAUK CENTRE    CLOUDY    17   7  66 S8        29.99F WCI   6
PAYNESVILLE    CLOUDY    15   4  63 E6        30.01F WCI   6
AITKIN         CLOUDY    16   9  73 CALM      29.97F
PINE RIVER     CLOUDY    16   9  73 S6        29.99F WCI   7
BRAINERD       CLOUDY    13   8  81 S5        29.99F WCI   5
STAPLES        CLOUDY    16   9  73 SE3       29.97F
LONG PRAIRIE   CLOUDY    18   9  68 SE6       29.98F WCI   9
LITTLE FALLS   PTSUNNY   18  10  73 S3        30.01F
LITCHFIELD     CLOUDY    19  10  68 CALM      30.03F
BUFFALO        CLOUDY    18  10  73 CALM      30.06F
MAPLE LAKE     CLOUDY    18  12  77 CALM      30.05S
$$
MNZ037-044-045-052-053-251900-
   East Central Minnesota

CITY           SKY/WX    TMP DP  RH WIND       PRES   REMARKS
PRINCETON      CLOUDY    16  10  79 CALM      30.03F
MORA           CLOUDY    14   9  79 CALM      30.05F
CAMBRIDGE      CLOUDY    16   7  67 CALM      30.04S
RUSH CITY      CLOUDY    15  10  79 SW3       30.06S
MOOSE LAKE     CLOUDY    18   9  68 SW3       29.99F
HINCKLEY       CLOUDY    18  12  79 CALM      30.03F
CLOQUET        CLOUDY    19   9  63 W6        29.97F WCI  11
MCGREGOR       CLOUDY    14  10  85 S3        29.99F
$$
MNZ071>073-080-081-089-090-097-098-251900-
   Southwest Minnesota

CITY           SKY/WX    TMP DP  RH WIND       PRES   REMARKS
MONTEVIDEO     CLOUDY    25  14  63 S6        29.99F WCI  18
GRANITE FALLS  CLOUDY    25  14  64 SE8       30.02F WCI  16
CANBY          CLOUDY    32  20  60 S5        29.98F WCI  27
MARSHALL       CLOUDY    30  14  51 SW9       29.99F WCI  22
REDWOOD FALLS  CLOUDY    25   9  50 SE7       30.02F WCI  17
OLIVIA         MOSUNNY   23  12  63 S8        30.01F WCI  14
PIPESTONE      MOSUNNY   30  16  55 SW9       29.96F WCI  22
WINDOM         CLOUDY    27  10  50 S7        30.01F WCI  19
WORTHINGTON    CLOUDY    27  12  54 S9        30.01F WCI  17
JACKSON        CLOUDY    30   9  40 SW7       30.02F WCI  23
TRACY          CLOUDY    31  16  53 SW9       29.99F WCI  23
SLAYTON        CLOUDY    28  13  53 SW12      29.99F WCI  18
$$
MNZ065>067-074>077-082>085-091>093-251900-
   South Central Minnesota

CITY           SKY/WX    TMP DP  RH WIND       PRES   REMARKS
MANKATO        CLOUDY    21   7  53 S6        30.05F WCI  14
NEW ULM        CLOUDY    21  10  63 S5        30.05F WCI  15
ST JAMES       CLOUDY    28   5  37 S6        30.06F WCI  22
FAIRMONT       SUNNY     28   7  40 SW6       30.05F WCI  22
GLENCOE        CLOUDY    21  14  76 CALM      30.05S
FARIBAULT      CLOUDY    21  14  73 CALM      30.06F
OWATONNA       SUNNY     21  12  68 SW6       30.05F WCI  14
WASECA         SUNNY     21  12  68 SW5       30.07F WCI  15
ALBERT LEA     SUNNY     21  12  68 W6        30.06S WCI  14
$$
MNZ078>079-086>088-094>096-251900-
   Southeast Minnesota

CITY           SKY/WX    TMP DP  RH WIND       PRES   REMARKS
ROCHESTER      SUNNY     19  12  74 W8        30.05F WCI   9
6HR MIN TEMP:   7; 6HR MAX TEMP:  19;

RED WING       SUNNY     23  12  63 W6        30.07S WCI  16
STANTON        PTSUNNY   20  12  69 S3        30.05F
DODGE CENTER   SUNNY     18  14  86 SW8       30.05R WCI   7
WINONA         SUNNY     23  14  68 W3        30.09S
AUSTIN         SUNNY     19  12  73 W3        30.06S
PRESTON        SUNNY     17  11  76 W7        30.06S WCI   8
$$
ABBREVIATIONS USED IN REMARKS
   TC - TEMPERATURES IN CELSIUS
  WCI - WIND CHILL INDEX
   HX - HEAT INDEX
  VSB - VISIBILITY
$$



USA.gov is the U.S. government's official web portal to all federal, state and local government web resources and services.